{"data":{"norad_id":49199,"intl_designator":"2021-083P","name":"ONEWEB-0333","alt_names":[],"object_type":"PAYLOAD","status":"ACTIVE","operator":null,"country":"UK","launch_date":"2021-09-14","launch_site_code":"TYMSC","launch_vehicle":null,"mission":null,"orbit_class":"UNKNOWN","rcs_meters":null,"size_class":null,"mass_kg":null,"dimensions":null,"purposes":["comms"],"wikipedia_slug":null,"has_3d_model":false,"image_url":null,"decayed_at":null,"tle_current":{"epoch":"2026-09-20T01:22:43.761216Z","epoch_age_seconds":60202,"freshness":"FRESH","line1":"1 49199U 21083P   26263.05745094 -.00000248  00000+0 -71412-3 0  9992","line2":"2 49199  87.8913 301.3564 0001935  94.8657 265.2693 13.13470453243361","mean_motion":13.13470453,"eccentricity":0.0001935,"inclination_deg":87.8913,"raan_deg":301.3564,"arg_perigee_deg":94.8657,"mean_anomaly_deg":265.2693,"bstar":-0.0007141199999999999,"rev_number":24336,"period_min":109.63322370222,"perigee_km":1208.2953964731,"apogee_km":1211.2319140267,"semimajor_km":7587.9006552499,"source":"CELESTRAK","updated_at":"2026-09-20T09:00:44.663062Z"}}}